Regional Weather Roundup
Issued by NWS Charleston, SC

Current Version | Previous Version | Text Only | Print | Product List | Glossary Off
Versions: 1 2 3 4 5 6 7 8 9 10 11 12 13 14 15 16 17 18 19 20 21 22 23 24 25 26 27 28 29 30 31 32 33 34 35 36 37 38 39 40 41 42 43 44 45 46 47 48 49 50

000
ASUS42 KCHS 222112
RWRCHS

Regional Weather Roundup
National Weather Service Charleston SC
400 PM EST MON JAN 22 2018

NOTE: "fair" indicates few or no clouds below 12,000 feet with no
significant weather and/or obstructions to visibility.

Not all stations are quality controlled. Use data with caution,
especially dewpoint observations.

SCZ027-030-031-034>040-042>050-222200-
...Southeast South Carolina...

CITY           SKY/WX    TMP DP  RH WIND       PRES   REMARKS
N Charleston   PTSUNNY   71  61  70 SE12      30.07F
Waterfront Prk NOT AVBL
Mount Pleasant FAIR      66  61  82 E5        30.09S
Johns Island   MOCLDY    66  61  82 E7        30.09S
Pinopolis        N/A     66  61  82 VRB2      29.98F
Moncks Corner  FAIR      70  59  68 S6        30.07F
Summerville    FAIR      72  61  68 S7        30.08S
Beaufort MCAS  PTSUNNY   68  61  78 SE7       30.07F
Beaufort Arpt  FAIR      68  61  77 CALM      30.07F
Hilton Head Is SUNNY     63  57  82 E3        30.08F
Walterboro     MOCLDY    70  61  73 S12       30.07S
Allendale      MOCLDY    72  59  64 SE13      30.03F

...Southern Midlands and Pee Dee...

CITY           SKY/WX    TMP DP  RH WIND       PRES   REMARKS
Georgetown     FAIR      61  59  94 E3        30.12F
Kingstree      FAIR      68  55  64 E8        30.08F
Orangeburg     CLOUDY    70  57  63 SE5       30.05S
Barnwell         N/A     72  61  68 S9        30.04S
Aiken          MOCLDY    68  55  64 S10       30.07S
Manning        FAIR      70  46  43 MISG      30.07F
Columbia       PTSUNNY   68  50  52 NE3       30.05S
Sumter         PTSUNNY   68  52  56 SE9       30.04F
Florence       FAIR      66  52  60 SE7       30.09S
Myrtle Beach   CLOUDY    58  56  93 VRB3      30.13S
N Myrtle Beach PTSUNNY   60  58  92 E3        30.11F

$$

GAZ063-065-086>088-099>101-113>116-118-119-134>141-150-222200-
...Southeast Georgia...

CITY           SKY/WX    TMP DP  RH WIND       PRES   REMARKS
Savannah Arpt  NOT AVBL
Hunter AAF     FAIR      72  62  69 SE10      30.03F
Fort Stewart   FAIR      75  60  59 SE12      30.01F
Statesboro     FAIR      74  56  54 S6        30.02F
Sylvania       MOCLDY    72  63  72 SE5       30.04S
Claxton        FAIR      77  61  58 SE5       30.02F

...CSRA, Central and far Southeast Georgia...

CITY           SKY/WX    TMP DP  RH WIND       PRES   REMARKS
Thomson        CLOUDY    68  58  69 SW6       30.07S
Augusta-Bush   FAIR      73  58  59 S7        30.01F
Augusta-Daniel PTSUNNY   71  57  61 SE5       30.03S
Swainsboro     MOCLDY    72  61  68 S10       30.03S
Vidalia        PTSUNNY   75  59  57 S8        30.02F
Eastman        CLOUDY    75  50  42 S6        30.03F
Hazlehurst     FAIR      76  52  43 S6G16     30.01S
Alma           PTSUNNY   75  59  57 S9        30.02S
Waycross       FAIR      76  55  47 S12       30.03S
Jesup          NOT AVBL
Baxley         CLOUDY    73  55  53 S9        30.02R
Brunswick      FAIR      70  61  73 SE10      30.06F
Saint Simons   FAIR      65  61  87 SE8       30.06S

$$

SCZ027-028-034-036>038-045-046-048>050-GAZ119-141-222200-
...Lake and Supplemental Coastal Observations...

STATION/POSITION TIME  TEMP    WIND        PRES    WAVE   SWELL
                       AIR SEA DIR/SP/G            HT/PER HT/PER/DIR
                 (UTC) (F)     (DEG/KT/KT) (MB)    (FT/S) (FT/S/D)
Winyah Bay       1945   56      60/  6     1020.0
Lake Murray      2020   65     110/  3/  4 1016.9
ACE Basin NERRS  1945   67        CALM     1019.0
Fort Pulaski     2042   52 47  100/  7/  9 1018.5F
Sapelo Island    2000   71     140/  7     1018.0

$$

ANZ835-935-AMZ111-154-330-350-352-354-370-450-454-472-222200-
...C-MAN and Buoy Observations...

STATION/POSITION TIME  TEMP    WIND        PRES    WAVE   SWELL
                       AIR SEA DIR/SP/G            HT/PER HT/PER/DIR
                 (UTC) (F)     (DEG/KT/KT) (MB)    (FT/S) (FT/S/D)
Buoy 41004       2050   70 70  160/ 10/ 12 1018.9F   3/ 5   2/160/ 5
Buoy 41008       2050   60 53   90/  6/  6 1018.2F   2/ 5   2/110/ 5
Folly Beach CMAN 2000   54      60/  6/  8 1019.8F
Capers Nearshore 2008   51 51   50/  8/ 10 1019.2F
Fripp Nearshore  2008   52 48   30/  2/  6 1018.5F


STATION/POSITION TIME  TEMP    WIND        PRES    WAVE   SWELL
                       AIR SEA DIR/SP/G            HT/PER HT/PER/DIR
                 (UTC) (F)     (DEG/KT/KT) (MB)    (FT/S) (FT/S/D)
5E St. Marys GA  2100      53                N/A     2/ 5
Frying Pan Buoy  2050   66 65  190/  8/ 10 1020.2R   2/ 4   2/110/ 8
Buoy 41025       2050   67 73  160/  4/  6 1021.5S   1/10   2/120/10
Cape Lookout NC  2000           80/  5/  5 1021.1F
Buoy 41002       2050   69 70  110/  8/  8 1021.9F   2/10   2/100/10
Buoy 41010       NOT AVBL
St Augustine FL  2100   60 54  160/  5/  6 1018.0R


$$



USA.gov is the U.S. government's official web portal to all federal, state and local government web resources and services.